SCP
0 0 0 0 0 0 0 0 0 0 0 0 1 1 1 1 1 1 1 1 1 1 1 1 1 1 1 1 2 2 2 2 2 1 1 1 1 1 1 1 1 0 0 0
0 0 0 0 0 0 0 0 0 0 0 0 1 1 1 1 1 1 1 1 1 1 2 2 2 2 1 1 2 2 2 2 2 2 1 1 1 1 1 1 1 1 0 0
0 0 0 0 0 0 0 0 0 0 0 1 1 1 1 1 2 2 2 2 2 2 2 2 2 2 2 2 2 2 2 2 2 2 1 1 1 1 1 1 1 1 1 1
0 0 0 0 0 0 0 0 0 0 1 1 1 2 2 2 2 2 2 2 3 3 3 2 2 2 2 2 3 3 3 2 2 2 2 1 1 1 1 1 1 1 1 1
0 0 0 0 0 0 0 0 0 1 1 1 2 3 3 3 3 3 3 3 3 3 3 3 2 2 3 3 3 3 3 3 2 2 2 1 1 1 1 1 1 1 1 1
0 0 0 0 0 0 0 0 1 1 1 2 2 3 3 4 4 4 4 4 3 3 3 3 3 3 3 3 3 3 3 3 2 2 2 2 1 1 1 1 1 1 1 0
0 0 0 0 0 0 0 0 1 1 1 2 2 3 3 4 4 4 4 4 4 3 3 3 3 3 3 3 3 3 3 3 2 2 2 1 1 1 1 1 1 1 1 0
0 0 0 0 0 0 0 1 1 1 2 2 3 3 4 4 4 4 4 4 3 3 3 3 3 3 3 3 3 3 3 3 2 2 2 1 1 1 1 1 1 1 1 0
0 0 0 0 0 0 1 1 1 2 2 3 4 4 4 4 4 4 3 3 3 3 3 2 2 3 3 3 3 3 3 2 2 2 1 1 1 1 1 1 1 1 1 0
0 0 0 1 1 1 1 1 2 2 3 4 4 4 4 4 3 3 3 3 2 3 2 2 2 3 3 3 2 2 2 2 1 1 1 1 1 1 1 1 1 1 0 0
0 0 1 1 1 1 1 2 2 3 3 4 4 4 4 3 3 3 3 2 2 2 2 2 2 2 2 2 2 2 2 1 1 1 1 1 1 0 0 0 0 0 0 0
0 0 0 1 1 1 1 2 2 2 3 3 3 3 3 3 2 2 2 2 2 2 2 2 2 2 2 2 2 2 2 1 1 1 1 1 0 0 0 0 0 0 0 0
0 0 0 0 1 1 1 1 1 2 2 2 2 2 2 2 2 2 2 2 2 2 2 2 2 2 2 2 2 1 1 1 1 1 1 1 0 0 0 0 0 0 0 0
0 0 0 0 0 0 0 1 1 1 1 1 1 1 2 2 2 2 2 2 2 2 2 2 2 1 1 1 1 1 1 1 1 1 1 1 1 0 0 0 0 0 0 0
0 0 0 0 0 0 0 0 0 1 1 1 1 1 1 2 2 2 1 1 1 2 2 1 1 1 1 1 1 1 1 1 1 1 1 1 1 0 0 0 0 0 0 0
0 0 0 0 0 0 0 0 0 0 1 1 1 1 1 1 1 1 1 1 1 1 1 1 1 1 1 1 1 1 1 1 1 1 1 1 1 0 0 0 0 0 0 0
0 0 0 0 0 0 0 0 0 0 1 1 1 1 1 1 1 1 1 1 1 1 1 1 0 0 0 1 1 1 1 1 1 1 1 1 1 0 0 0 0 0 0 0
0 0 0 -0 0 0 0 0 0 0 0 1 1 1 0 0 0 0 0 1 1 0 0 0 -0 -0 0 0 0 0 0 0 0 1 1 1 1 0 0 0 0 0 0 0
0 0 0 0 0 0 0 0 0 0 0 0 0 0 0 0 0 0 0 0 0 0 0 0 -0 -0 -0 0 0 0 0 0 0 0 0 0 0 0 0 0 0 0 0 0
0 0 0 0 0 0 0 0 0 0 0 0 0 0 0 0 0 0 0 0 0 0 0 0 0 0 0 0 0 0 0 0 0 0 0 0 0 0 0 0 0 0 0 0
0 0 0 0 0 0 0 0 0 0 0 0 0 0 0 0 0 0 0 0 0 0 0 0 0 0 0 0 0 0 0 0 0 0 0 0 0 0 0 0 0 0 0 0
0 0 0 0 0 0 0 0 0 0 0 0 0 0 0 0 0 0 0 0 0 0 0 0 0 0 0 0 0 0 0 0 0 0 0 0 0 0 0 0 0 0 0 0
0 0 0 0 0 0 0 0 0 0 0 0 0 0 0 0 0 0 0 0 0 0 0 0 0 0 0 0 0 0 0 0 0 0 0 0 0 0 0 0 0 0 0 0
0 0 0 0 0 0 0 0 0 0 0 0 0 0 0 0 0 0 0 0 0 0 0 0 0 0 0 0 0 0 0 0 0 0 0 0 0 0 0 0 0 0 0 0
0 0 0 0 0 0 0 0 0 0 0 0 0 0 0 0 0 0 0 0 0 0 0 0 0 0 0 0 0 0 0 0 0 0 0 0 0 0 0 0 0 0 0 0
0 0 0 0 0 0 0 0 0 0 0 0 0 0 0 0 0 0 0 0 0 0 0 0 0 0 0 0 0 0 0 0 0 0 0 0 0 0 0 0 0 0 0 0
0 0 0 0 0 0 0 0 0 0 0 0 0 0 0 0 0 0 0 0 0 0 0 0 0 0 0 0 0 0 0 0 0 0 0 0 0 0 0 0 0 0 0 0
Wind_Speed
4 5 2 3 4 2 2 6 7 7 6 7 6 7 7 8 8 8 8 8 9 7 6 7 6 5 6 7 8 9 9 8 8 7 6 6 5 4 4 4 4 3 3 2
4 4 4 4 4 3 2 2 3 3 4 5 4 4 6 8 10 9 9 9 10 10 9 9 9 8 7 7 8 8 9 9 7 6 6 6 5 5 4 4 3 3 3 2
3 5 4 4 3 1 1 2 3 4 6 2 2 4 7 9 10 9 9 8 8 8 9 9 9 8 8 8 8 8 8 7 7 7 6 5 6 5 5 4 4 4 3 2
1 3 4 9 3 0 0 2 0 1 2 4 4 3 4 6 8 7 6 7 7 7 6 6 6 6 6 7 8 8 8 7 7 7 6 4 4 5 5 4 4 4 3 3
2 1 6 6 4 2 1 5 3 1 1 3 4 6 4 2 3 6 6 6 6 6 5 5 7 7 7 6 7 7 8 8 8 8 7 7 6 4 3 3 3 3 2 3
2 2 5 6 7 5 2 4 4 3 4 3 4 4 3 2 1 3 4 4 4 4 5 4 4 6 7 6 6 6 7 7 8 8 8 7 6 5 3 3 4 3 3 2
4 4 7 5 8 5 2 6 5 1 3 2 2 5 5 2 2 3 4 4 5 5 4 3 4 6 6 5 5 5 5 6 6 7 7 6 5 4 4 4 4 4 4 2
3 4 7 6 5 1 5 5 3 3 1 1 3 4 4 4 4 4 4 4 5 5 4 2 3 5 5 4 3 4 5 5 6 6 5 5 5 4 4 4 4 4 3 2
5 7 6 3 2 4 2 2 3 1 1 4 5 4 5 4 4 5 4 4 4 5 4 3 2 4 5 3 3 4 5 4 4 5 4 4 5 4 3 3 3 3 2 2
2 4 4 3 2 3 2 2 3 1 2 3 4 5 4 4 4 5 4 4 4 5 4 2 2 3 4 3 4 6 6 5 5 5 4 4 3 3 3 3 3 3 2 2
3 5 6 6 7 6 5 4 5 2 2 3 5 6 5 4 4 4 4 3 4 4 4 2 2 4 3 4 5 5 6 5 4 4 5 4 4 2 3 2 3 4 3 3
4 4 2 5 7 8 6 4 3 1 2 2 3 5 5 4 3 3 3 3 4 3 3 2 3 3 2 3 4 5 5 4 4 4 4 5 5 4 6 4 3 3 3 3
4 4 3 4 6 6 6 6 3 1 1 2 2 3 4 4 3 3 3 3 3 3 3 2 3 3 2 3 4 5 4 4 3 4 4 5 4 5 3 3 6 5 4 4
3 2 2 2 3 5 6 6 3 2 2 2 3 3 4 4 3 3 2 2 3 3 3 2 3 2 2 3 4 4 4 4 4 4 4 5 5 4 4 4 2 1 2 3
2 1 2 1 2 3 4 4 4 3 3 2 2 3 4 5 4 3 2 3 3 4 3 2 2 1 1 3 3 3 3 2 3 3 4 4 4 4 4 4 4 3 1 1
2 1 0 1 2 3 3 3 2 2 1 1 1 1 3 4 4 3 2 3 4 3 2 2 2 0 1 3 3 2 2 3 4 3 3 3 4 4 4 4 4 3 3 2
2 2 2 1 2 3 2 1 1 1 0 1 1 2 3 4 3 2 2 2 2 2 1 2 1 1 1 2 3 2 2 3 4 4 3 4 4 4 4 4 4 3 3 3
3 5 5 4 3 2 2 2 1 1 1 1 1 3 3 3 3 2 2 2 3 2 1 1 1 1 2 2 2 2 3 3 3 3 3 3 3 3 4 4 4 4 2 3
1 2 2 2 2 1 0 1 1 1 1 2 2 2 2 2 3 2 2 3 3 2 1 1 2 2 2 2 3 2 3 3 3 2 2 4 4 3 3 4 4 3 4 3
3 2 2 2 2 1 1 1 1 1 1 2 2 2 2 1 2 2 3 2 1 1 1 2 3 2 2 2 4 3 3 3 3 3 3 3 3 3 3 3 3 4 4 3
3 3 3 3 2 2 2 1 1 1 1 2 2 2 1 1 2 2 2 1 1 1 3 4 3 2 2 3 4 3 3 4 4 3 4 4 3 3 4 4 4 3 3 3
1 2 2 2 3 2 2 1 1 1 2 2 2 2 2 2 2 2 1 1 1 2 2 2 2 3 4 5 3 3 4 4 3 3 3 4 4 4 4 4 3 3 3 3
1 1 1 1 1 1 2 2 2 2 1 1 1 1 2 2 2 2 1 1 1 3 3 2 3 5 6 4 3 4 4 3 3 3 3 3 3 3 3 3 3 3 3 3
1 1 1 1 1 2 2 2 1 1 0 0 1 2 2 2 1 1 2 3 4 4 2 3 4 5 5 3 3 3 3 3 3 3 3 3 3 3 3 3 3 2 3 3
1 0 1 1 1 1 1 1 1 1 1 1 1 1 1 2 3 2 3 3 5 4 2 3 4 5 4 3 3 3 3 3 3 3 3 3 3 3 3 3 3 3 3 3
0 1 1 1 1 1 1 1 0 1 1 1 1 1 1 1 2 3 2 3 4 4 3 2 2 3 3 3 3 3 3 3 4 4 4 4 4 4 3 3 4 3 3 4
1 0 0 1 1 1 0 0 0 0 0 1 1 1 1 2 2 2 3 2 3 2 2 2 2 2 2 3 3 4 4 4 4 4 4 3 3 4 4 4 4 4 4 4
Wind_Direction
238 248 248 270 288 284 197 191 189 224 212 225 195 176 171 158 150 150 158 161 163 165 176 173 171 181 195 191 182 176 174 182 189 187 180 174 173 176 174 175 176 162 152 153
334 338 337 320 309 300 277 224 199 183 240 240 203 157 153 149 148 155 165 176 177 173 182 181 177 184 194 195 184 175 178 185 180 174 174 175 171 164 169 173 163 148 154 155
302 318 3 298 276 303 321 313 178 198 234 216 130 162 170 162 153 157 163 171 180 180 183 183 180 178 182 185 176 175 180 177 171 167 168 178 171 167 174 178 164 156 163 157
264 13 239 243 266 100 102 322 27 203 220 168 166 178 167 152 154 161 162 159 163 172 177 175 170 166 165 165 164 166 166 165 162 163 158 157 160 174 176 168 164 166 171 165
129 220 275 293 318 341 310 300 320 80 80 97 109 77 57 47 138 162 165 163 161 162 161 163 166 165 152 156 159 160 164 169 165 160 155 158 169 171 170 162 157 162 161 157
151 187 239 265 302 307 77 285 313 106 131 144 102 97 231 280 92 116 122 134 135 124 118 132 157 149 146 152 152 165 174 171 164 160 160 163 167 166 159 152 153 150 140 152
189 220 254 279 314 10 83 255 309 298 181 171 180 182 190 169 112 117 108 100 108 113 115 143 155 147 147 148 162 173 163 156 158 160 158 156 157 156 150 148 145 146 149 158
171 207 252 310 8 42 246 280 302 306 263 128 116 119 123 123 114 102 97 97 102 103 101 107 129 134 131 152 167 145 137 141 149 152 152 148 147 151 154 153 153 158 156 155
198 219 240 273 241 247 238 292 300 335 12 117 116 124 125 128 125 114 111 110 106 105 96 85 100 129 131 146 133 124 122 125 127 132 138 140 143 146 144 147 149 156 159 164
292 271 292 318 336 334 352 331 309 259 137 126 129 128 118 120 125 116 110 109 100 102 98 91 102 110 126 139 138 136 131 134 133 129 121 116 114 124 134 147 153 153 161 168
286 301 335 348 351 341 340 349 347 341 102 121 137 131 125 125 126 122 122 118 113 114 116 114 120 114 129 137 132 130 130 131 130 125 127 116 105 101 129 146 172 163 172 169
240 255 251 289 317 339 332 325 332 40 63 63 116 125 121 124 132 132 131 129 125 128 125 132 135 125 129 139 134 135 135 140 143 136 132 136 131 94 54 72 77 109 146 148
232 250 239 290 328 346 329 312 338 26 123 102 86 116 117 118 125 117 121 125 131 137 130 135 130 122 128 138 134 137 141 148 148 148 148 153 154 148 133 61 58 71 95 127
256 260 318 336 332 329 319 324 7 24 37 95 99 102 105 107 108 103 106 120 129 121 112 112 113 115 120 126 128 134 146 154 155 162 165 164 165 164 157 151 138 73 57 104
279 262 216 279 334 321 319 345 19 33 44 55 83 108 113 111 110 101 93 96 98 99 105 112 102 92 110 121 127 144 160 162 158 159 159 158 157 156 156 156 151 145 125 84
269 311 108 78 312 307 319 347 7 18 33 103 115 143 129 117 112 110 105 104 103 111 138 128 121 119 93 114 123 130 148 149 144 146 141 141 148 153 157 156 155 158 162 161
194 203 218 233 295 299 302 324 285 281 292 119 174 142 125 117 107 102 102 99 105 114 149 135 138 131 91 105 119 127 126 131 127 126 137 148 150 154 155 155 156 160 176 164
206 198 196 190 199 247 315 7 332 223 186 167 127 108 119 133 141 147 124 96 82 74 81 107 99 90 82 73 87 104 115 120 126 139 147 148 149 150 148 150 156 157 153 145
197 176 175 176 180 180 215 18 332 260 191 133 106 109 123 127 127 125 115 101 102 98 358 33 80 81 69 51 70 93 108 112 110 120 129 127 125 130 137 144 150 153 148 145
67 72 60 49 56 72 88 17 334 294 170 124 112 105 99 107 108 99 97 93 114 171 147 71 63 58 61 49 66 91 104 106 107 109 106 110 115 117 122 129 137 143 143 148
45 49 45 43 48 49 85 101 50 32 49 90 115 131 136 93 88 102 104 82 339 47 86 81 73 69 69 74 74 85 95 100 101 106 110 112 112 112 116 117 118 121 123 126
30 55 63 48 40 21 15 44 50 50 57 67 86 112 111 98 86 86 98 166 193 104 87 78 75 79 87 84 87 91 95 98 98 99 103 110 115 116 115 116 116 114 109 107
4 20 39 34 22 353 11 29 36 43 54 75 113 135 143 154 148 139 169 262 144 114 102 101 103 91 89 88 95 97 100 103 103 103 107 113 117 118 121 120 117 116 113 110
8 22 41 35 36 40 20 346 353 5 359 268 203 176 159 142 133 172 170 160 142 123 113 123 112 98 91 89 94 102 109 110 111 110 108 109 114 117 120 121 119 116 113 110
320 13 50 51 37 353 304 318 337 345 9 22 12 9 158 159 163 170 146 141 144 136 130 138 125 110 94 91 97 103 109 114 116 114 108 111 114 116 116 117 117 116 112 109
303 198 216 210 212 237 267 303 327 323 38 42 21 27 55 93 127 132 130 137 147 144 138 130 118 106 98 100 102 102 101 102 102 102 108 110 108 108 110 112 111 113 113 113
26 31 42 354 306 261 219 187 174 209 152 141 131 99 103 101 102 113 120 121 124 123 124 123 120 114 108 103 102 100 98 97 97 98 101 102 103 105 107 106 105 104 103 101